When you browse on this site, cookies collect data to enhance your experience and personalize the content and advertising you see.
Visit our Privacy Policy to learn more. By continuing to use the site, you agree to this use of cookies and data.
  • In Austria
  • List of Countries
  • For 7 days
  • Water Temperature
  • Weather Map
  • News
  • Weather Widgets
  • user-avatar
    Login

    Hourly Weather Troy

    Today, 15 September, Sunday

    Time Temperature Precipitation Wind Pressure Humidity
    00:00 +19°C° 0 mm 1 mps 763 mmHg 94%
    01:00 +18°C° 0 mm 1 mps 763 mmHg 94%
    02:00 +16°C° 0 mm 1 mps 763 mmHg 94%
    03:00 +16°C° 0 mm 1 mps 763 mmHg 94%
    04:00 +15°C° 0 mm 1 mps 763 mmHg 93%
    05:00 +14°C° 0 mm 0 mps 763 mmHg 92%
    06:00 +15°C° 0 mm 0 mps 764 mmHg 90%
    07:00 +15°C° 0 mm 0 mps 764 mmHg 89%
    08:00 +19°C° 0 mm 1 mps 764 mmHg 79%
    09:00 +21°C° 0 mm 1 mps 763 mmHg 69%
    10:00 +24°C° 0 mm 2 mps 763 mmHg 59%
    11:00 +24°C° 0 mm 2 mps 763 mmHg 55%
    12:00 +25°C° 0 mm 2 mps 762 mmHg 52%
    13:00 +26°C° 0 mm 2 mps 762 mmHg 48%
    14:00 +26°C° 0 mm 2 mps 762 mmHg 50%
    15:00 +26°C° 0 mm 2 mps 761 mmHg 52%
    16:00 +26°C° 0 mm 2 mps 761 mmHg 54%
    17:00 +25°C° 0 mm 2 mps 761 mmHg 60%
    18:00 +23°C° 0 mm 1 mps 761 mmHg 66%
    19:00 +22°C° 0 mm 1 mps 762 mmHg 72%
    20:00 +21°C° 0 mm 1 mps 762 mmHg 75%
    21:00 +20°C° 0 mm 1 mps 762 mmHg 79%
    22:00 +19°C° 0 mm 1 mps 761 mmHg 83%
    23:00 +17°C° 0 mm 0 mps 761 mmHg 83%

    Tomorrow, 16 September, Monday

    Time Temperature Precipitation Wind Pressure Humidity
    00:00 +17°C° 0 mm 0 mps 761 mmHg 83%
    01:00 +17°C° 0 mm 0 mps 761 mmHg 83%
    02:00 +16°C° 0.1 mm 0 mps 761 mmHg 83%
    03:00 +18°C° 0.1 mm 1 mps 761 mmHg 83%
    04:00 +18°C° 0.1 mm 1 mps 761 mmHg 84%
    05:00 +16°C° 0.3 mm 1 mps 761 mmHg 86%
    06:00 +16°C° 0.3 mm 1 mps 761 mmHg 89%
    07:00 +15°C° 0.3 mm 1 mps 761 mmHg 92%
    08:00 +16°C° 0.2 mm 1 mps 761 mmHg 91%
    09:00 +16°C° 0.2 mm 1 mps 761 mmHg 90%
    10:00 +16°C° 0.2 mm 1 mps 761 mmHg 90%
    11:00 +19°C° 0 mm 1 mps 761 mmHg 82%
    12:00 +21°C° 0 mm 1 mps 760 mmHg 73%
    13:00 +23°C° 0 mm 1 mps 760 mmHg 65%
    14:00 +23°C° 0 mm 1 mps 760 mmHg 63%
    15:00 +24°C° 0 mm 1 mps 760 mmHg 60%
    16:00 +24°C° 0 mm 1 mps 759 mmHg 58%
    17:00 +22°C° 0 mm 1 mps 760 mmHg 64%
    18:00 +19°C° 0 mm 2 mps 761 mmHg 69%
    19:00 +18°C° 0 mm 2 mps 761 mmHg 75%
    20:00 +16°C° 0 mm 2 mps 762 mmHg 75%
    21:00 +15°C° 0 mm 2 mps 762 mmHg 75%
    22:00 +14°C° 0 mm 2 mps 762 mmHg 75%
    23:00 +13°C° 0 mm 2 mps 763 mmHg 78%

    Day after tomorrow, 17 September, Tuesday

    Time Temperature Precipitation Wind Pressure Humidity
    00:00 +12°C° 0 mm 2 mps 763 mmHg 81%
    01:00 +11°C° 0 mm 1 mps 763 mmHg 85%
    02:00 +11°C° 0 mm 1 mps 763 mmHg 86%
    03:00 +11°C° 0 mm 1 mps 763 mmHg 88%
    04:00 +10°C° 0 mm 1 mps 763 mmHg 90%
    05:00 +11°C° 0 mm 1 mps 764 mmHg 87%
    06:00 +11°C° 0 mm 1 mps 764 mmHg 85%
    07:00 +12°C° 0 mm 1 mps 765 mmHg 82%
    08:00 +14°C° 0 mm 2 mps 765 mmHg 74%
    09:00 +16°C° 0 mm 2 mps 765 mmHg 65%
    10:00 +18°C° 0 mm 3 mps 764 mmHg 57%
    11:00 +19°C° 0 mm 3 mps 764 mmHg 53%
    12:00 +21°C° 0 mm 3 mps 764 mmHg 49%
    13:00 +22°C° 0 mm 3 mps 763 mmHg 46%
    14:00 +22°C° 0 mm 3 mps 763 mmHg 46%
    15:00 +22°C° 0 mm 3 mps 763 mmHg 47%
    16:00 +21°C° 0 mm 3 mps 763 mmHg 48%
    17:00 +19°C° 0 mm 2 mps 763 mmHg 55%
    18:00 +17°C° 0 mm 2 mps 764 mmHg 62%
    19:00 +15°C° 0 mm 2 mps 764 mmHg 69%
    20:00 +14°C° 0 mm 2 mps 765 mmHg 72%
    21:00 +13°C° 0 mm 1 mps 765 mmHg 75%
    22:00 +13°C° 0 mm 1 mps 765 mmHg 78%
    23:00 +12°C° 0 mm 1 mps 765 mmHg 81%

    18 September, Wednesday

    Time Temperature Precipitation Wind Pressure Humidity
    00:00 +11°C° 0 mm 1 mps 765 mmHg 84%
    01:00 +11°C° 0 mm 1 mps 765 mmHg 86%
    02:00 +10°C° 0 mm 1 mps 766 mmHg 88%
    03:00 +10°C° 0 mm 1 mps 766 mmHg 89%
    04:00 +10°C° 0 mm 1 mps 766 mmHg 90%
    05:00 +10°C° 0 mm 1 mps 766 mmHg 88%
    06:00 +11°C° 0 mm 1 mps 766 mmHg 86%
    07:00 +12°C° 0 mm 1 mps 766 mmHg 83%
    08:00 +14°C° 0 mm 1 mps 766 mmHg 74%
    09:00 +18°C° 0 mm 1 mps 766 mmHg 64%
    10:00 +20°C° 0 mm 1 mps 766 mmHg 55%
    11:00 +22°C° 0 mm 1 mps 766 mmHg 51%
    12:00 +23°C° 0 mm 1 mps 766 mmHg 47%
    13:00 +24°C° 0 mm 1 mps 766 mmHg 43%
    14:00 +24°C° 0 mm 1 mps 765 mmHg 45%
    15:00 +24°C° 0 mm 1 mps 765 mmHg 47%
    16:00 +23°C° 0 mm 2 mps 765 mmHg 49%
    17:00 +21°C° 0 mm 1 mps 765 mmHg 56%
    18:00 +19°C° 0 mm 1 mps 766 mmHg 64%
    19:00 +15°C° 0 mm 0 mps 766 mmHg 71%
    20:00 +15°C° 0 mm 1 mps 767 mmHg 73%
    21:00 +14°C° 0 mm 1 mps 767 mmHg 76%
    22:00 +14°C° 0 mm 1 mps 768 mmHg 78%
    23:00 +13°C° 0 mm 1 mps 767 mmHg 81%

    19 September, Thursday

    Time Temperature Precipitation Wind Pressure Humidity
    00:00 +12°C° 0 mm 0 mps 767 mmHg 83%
    01:00 +11°C° 0 mm 0 mps 767 mmHg 86%
    02:00 +11°C° 0 mm 0 mps 767 mmHg 87%
    03:00 +10°C° 0 mm 0 mps 767 mmHg 88%
    04:00 +10°C° 0 mm 0 mps 767 mmHg 90%
    05:00 +11°C° 0 mm 0 mps 767 mmHg 88%
    06:00 +11°C° 0 mm 0 mps 768 mmHg 86%
    07:00 +12°C° 0 mm 0 mps 768 mmHg 84%
    08:00 +14°C° 0 mm 0 mps 767 mmHg 75%
    09:00 +19°C° 0 mm 1 mps 767 mmHg 66%
    10:00 +22°C° 0 mm 1 mps 767 mmHg 58%
    11:00 +23°C° 0 mm 1 mps 767 mmHg 53%
    12:00 +24°C° 0 mm 1 mps 766 mmHg 48%
    13:00 +26°C° 0 mm 1 mps 766 mmHg 43%
    14:00 +25°C° 0 mm 1 mps 765 mmHg 45%
    15:00 +25°C° 0 mm 1 mps 765 mmHg 47%
    16:00 +25°C° 0 mm 1 mps 765 mmHg 48%
    17:00 +23°C° 0 mm 1 mps 765 mmHg 56%
    18:00 +20°C° 0 mm 1 mps 765 mmHg 64%
    19:00 +18°C° 0 mm 1 mps 766 mmHg 72%
    20:00 +18°C° 0 mm 1 mps 766 mmHg 74%
    21:00 +16°C° 0 mm 1 mps 766 mmHg 77%
    22:00 +15°C° 0 mm 1 mps 766 mmHg 79%
    23:00 +15°C° 0 mm 1 mps 766 mmHg 82%

    20 September, Friday

    Time Temperature Precipitation Wind Pressure Humidity
    00:00 +14°C° 0 mm 1 mps 766 mmHg 84%
    01:00 +14°C° 0 mm 1 mps 766 mmHg 86%
    02:00 +13°C° 0 mm 1 mps 766 mmHg 88%
    03:00 +13°C° 0 mm 1 mps 765 mmHg 89%
    04:00 +13°C° 0 mm 1 mps 765 mmHg 90%
    05:00 +13°C° 0 mm 1 mps 765 mmHg 87%
    06:00 +14°C° 0 mm 1 mps 765 mmHg 85%
    07:00 +14°C° 0 mm 0 mps 765 mmHg 82%
    08:00 +18°C° 0 mm 1 mps 765 mmHg 74%
    09:00 +21°C° 0 mm 1 mps 765 mmHg 66%
    10:00 +23°C° 0 mm 1 mps 765 mmHg 58%
    11:00 +25°C° 0 mm 1 mps 764 mmHg 54%
    12:00 +26°C° 0 mm 1 mps 764 mmHg 51%
    13:00 +28°C° 0 mm 1 mps 763 mmHg 47%
    14:00 +28°C° 0 mm 1 mps 763 mmHg 49%
    15:00 +28°C° 0 mm 1 mps 763 mmHg 51%
    16:00 +28°C° 0 mm 1 mps 763 mmHg 53%
    17:00 +26°C° 0 mm 1 mps 763 mmHg 61%
    18:00 +24°C° 0 mm 1 mps 763 mmHg 70%
    19:00 +22°C° 0 mm 1 mps 764 mmHg 78%
    20:00 +21°C° 0 mm 1 mps 764 mmHg 81%
    21:00 +21°C° 0 mm 1 mps 764 mmHg 85%
    22:00 +18°C° 0 mm 0 mps 764 mmHg 88%
    23:00 +18°C° 0 mm 0 mps 764 mmHg 89%
    Show more